Flag for Azerbaijan Weather past 2 weeks in Sumqayit, Azerbaijan

Now
48 °F

Scattered clouds.


Feels Like: 46 °F
Forecast: 40 / 52 °F
Wind: 6 mph from Northwest

Location: Baku / Bine Airport

Current Time: Mar 6, 2015 at 12:04:26 PM

Latest Report: Mar 6, 2015 at 11:30 AM


Visibility: N/A

Pressure: 30.48 "Hg

Humidity: 54%

Dew point: 32 °F

Location of SumqayitLocation

Historic Weather in Sumqayit — Graph

°F

Sumqayit temperature yesterday

Maximum temperature yesterday: 48 °F (at 1:00 PM)
Minimum temperature yesterday: 41 °F (at 9:00 PM)
Average temperature yesterday: 44 °F

Past Weeks' High & Low Weather Summary

 TemperatureHumidityPressure
High54 °F (Mar 1, 1:30 PM)100% (Feb 20, 2:30 AM)30.51 "Hg (Feb 20, 2:30 AM)
Low28 °F (Feb 23, 5:00 AM)50% (Feb 24, 3:30 PM)29.89 "Hg (Feb 20, 3:00 AM)
Average41 °F86%30.17 "Hg
* Reported Feb 19 11:00 AM — Mar 6 11:00 AM, Sumqayit, Weather by CustomWeather, © 2015

Note: Actual official high and low records may vary slightly from our data, if they occured in-between our weather recording intervals... More about our weather records

Advertising

Sumqayit weather history for previous 24 hours

 ConditionsComfort  
Time TempWeatherWind HumidityBarometerVisibility
11:00 AM
Fri, Mar 6
48 °FScattered clouds.9 mph58%30.48 "HgN/A
10:30 AM48 °FScattered clouds.9 mph58%30.48 "HgN/A
10:00 AM48 °FPartly sunny.9 mph66%30.48 "HgN/A
9:30 AM46 °FPartly sunny.9 mph71%30.48 "HgN/A
9:00 AM45 °FSunny.9 mph71%30.48 "Hg10 mi
8:30 AM43 °FSunny.9 mph76%30.48 "Hg10 mi
8:00 AM43 °FSunny.7 mph71%30.45 "Hg10 mi
7:30 AM39 °FSunny.8 mph81%30.45 "Hg10 mi
7:00 AM39 °FClear.8 mph81%30.42 "Hg10 mi
6:30 AM39 °FClear.9 mph81%30.42 "Hg10 mi
6:00 AM39 °FClear.9 mph81%30.42 "Hg10 mi
5:30 AM39 °FClear.9 mph81%30.39 "Hg10 mi
5:00 AM41 °FClear.9 mph76%30.39 "Hg10 mi
4:30 AM41 °FClear.9 mph76%30.39 "Hg10 mi
4:00 AM41 °FClear.10 mph81%30.39 "Hg10 mi
3:30 AM41 °FClear.10 mph81%30.36 "Hg10 mi
3:00 AM43 °FClear.12 mph76%30.36 "Hg10 mi
2:30 AM43 °FClear.13 mph76%30.36 "Hg10 mi
2:00 AM43 °FClear.14 mph81%30.36 "Hg10 mi
1:30 AM43 °FOvercast.14 mph81%30.36 "HgN/A
1:00 AM43 °FLight rain. Mostly cloudy.17 mph81%30.36 "HgN/A
12:30 AM43 °FMostly cloudy.14 mph81%30.33 "HgN/A
12:00 AM41 °FLight rain. Mostly cloudy.15 mph93%30.33 "HgN/A
11:30 PM
Thu, Mar 5
43 °FLight rain. Overcast.16 mph87%30.33 "HgN/A
11:00 PM41 °FLight rain. Mostly cloudy.15 mph93%30.33 "HgN/A
10:30 PM43 °FLight rain. Mostly cloudy.15 mph87%30.33 "HgN/A
10:00 PM43 °FLight rain. Mostly cloudy.16 mph87%30.30 "HgN/A
9:30 PM41 °FMostly cloudy.18 mph93%30.30 "HgN/A
9:00 PM41 °FLight rain. Mostly cloudy.16 mph93%30.30 "HgN/A
8:30 PM43 °FMostly cloudy.17 mph87%30.27 "HgN/A
8:00 PM43 °FMostly cloudy.20 mph87%30.27 "HgN/A
7:30 PM43 °FMostly cloudy.18 mph87%30.27 "HgN/A
7:00 PM43 °FLight rain. Mostly cloudy.18 mph87%30.24 "HgN/A
6:30 PM43 °FLight rain. Mostly cloudy.18 mph87%30.24 "HgN/A
6:00 PM43 °FLight rain. Mostly cloudy.20 mph93%30.24 "HgN/A
5:30 PM43 °FLight rain. Mostly cloudy.20 mph93%30.21 "HgN/A
5:00 PM45 °FMostly cloudy.21 mph87%30.21 "HgN/A
4:30 PM45 °FMostly cloudy.21 mph87%30.21 "HgN/A
4:00 PM45 °FMostly cloudy.21 mph87%30.21 "HgN/A
3:30 PM46 °FBroken clouds.21 mph82%30.18 "HgN/A
3:00 PM46 °FMore clouds than sun.20 mph82%30.18 "HgN/A
2:30 PM46 °FMore clouds than sun.18 mph82%30.18 "HgN/A
2:00 PM46 °FMore clouds than sun.16 mph82%30.18 "HgN/A
1:30 PM46 °FMostly cloudy.17 mph87%30.18 "HgN/A
1:00 PM48 °FMore clouds than sun.18 mph82%30.18 "HgN/A
12:30 PM46 °FOvercast.21 mph82%30.15 "HgN/A
12:00 PM46 °FLow clouds.21 mph87%30.15 "HgN/A
Weather by CustomWeather, © 2015

See weather overviewHow to use our weather pages